Theta_e
317 317 318 318 319 315 312 318 319 317 318 321 319 319 319 316 314 314 314 312 311 312 314 316 317 318 319 319 321 326 330 331 331 330 330 329 331 331 330 330 330 329 328 326
318 318 313 314 317 319 317 318 317 317 317 318 316 316 314 313 312 311 311 310 309 310 311 313 316 317 318 318 317 320 327 330 331 330 329 329 328 328 330 330 330 329 328 327
313 312 313 314 317 321 321 319 316 317 317 316 317 317 314 313 313 312 311 311 310 311 312 312 313 315 315 315 316 318 322 327 330 330 329 328 328 328 328 327 328 329 329 328
314 310 313 315 316 319 320 318 316 317 318 317 315 311 310 312 314 314 313 311 311 311 311 310 311 312 314 315 315 315 319 326 328 330 329 329 328 327 328 327 329 329 329 328
314 312 312 315 315 317 315 317 319 316 316 318 316 318 314 315 316 314 312 311 310 309 309 308 308 311 315 317 314 315 319 324 328 329 330 329 328 329 328 328 327 327 327 328
311 311 312 312 313 315 313 315 317 316 320 319 315 316 312 310 313 314 313 312 311 311 310 310 310 309 311 315 318 320 324 326 328 330 330 329 328 328 328 328 328 327 327 327
313 313 312 313 316 315 316 316 313 318 320 316 310 315 312 311 311 311 310 311 311 311 308 306 304 305 306 308 315 322 325 327 328 330 330 330 330 330 329 329 328 328 327 327
314 315 312 311 316 316 317 316 311 310 315 315 313 318 314 313 312 311 309 310 310 308 305 304 304 304 304 305 307 308 311 317 323 326 328 329 330 330 330 330 329 329 328 329
312 312 308 311 314 314 316 319 313 314 308 311 313 313 313 312 312 312 312 309 307 306 304 303 302 303 303 303 303 303 301 302 303 305 306 309 314 319 323 327 328 329 329 329
307 309 309 311 313 314 314 314 318 317 316 318 314 316 315 313 311 310 309 307 306 305 302 301 300 301 301 301 300 299 299 299 300 300 301 301 302 302 302 303 304 306 309 315
305 306 308 312 314 314 315 316 314 313 317 316 312 314 310 312 312 309 307 306 304 302 301 299 298 298 297 297 298 296 296 296 296 297 297 297 298 298 298 298 299 300 301 303
305 305 310 312 307 310 312 313 314 316 314 315 313 312 308 308 309 306 307 304 303 301 299 296 296 295 294 293 294 294 293 293 293 294 295 295 295 296 296 296 297 297 297 298
307 308 307 311 311 310 313 313 312 311 308 312 315 313 307 307 305 306 304 303 300 298 297 296 295 294 292 291 291 292 291 290 290 291 292 292 293 293 294 294 294 295 295 296
309 307 309 310 308 309 313 313 313 313 314 313 313 310 309 306 303 303 302 300 298 297 296 295 295 292 289 288 288 289 288 287 287 288 289 289 290 291 291 291 291 292 292 293
309 311 307 306 306 308 310 311 312 313 313 313 311 311 311 305 303 302 300 296 295 292 290 290 290 288 287 286 286 286 285 284 284 285 286 287 288 289 288 288 288 289 290 291
310 310 306 303 305 307 307 309 310 313 313 312 310 309 307 304 298 297 296 295 292 290 288 286 286 284 284 284 283 284 282 282 283 283 284 286 287 285 284 284 285 286 287 288
310 311 311 311 306 307 308 308 310 310 311 313 314 312 304 298 296 293 290 288 287 286 284 284 283 282 281 281 281 280 280 280 281 281 282 282 281 280 280 281 282 283 284 285
311 310 310 307 308 312 307 302 307 310 309 310 305 302 301 297 287 284 283 284 284 283 282 281 280 279 279 279 278 277 278 278 278 279 278 277 277 277 278 279 280 280 281 283
309 310 304 306 310 304 302 301 303 307 309 300 306 291 288 285 285 282 281 281 280 279 279 278 278 277 277 276 276 275 276 276 276 276 275 275 275 276 276 276 277 278 280 280
309 309 309 297 309 310 302 296 292 301 306 289 291 291 289 289 296 286 279 279 278 278 277 277 276 276 275 275 274 275 275 275 274 273 274 274 274 274 274 274 275 276 277 278
310 310 310 305 307 301 297 291 290 302 301 286 285 284 286 288 282 279 278 277 277 276 276 275 274 274 274 274 273 274 274 273 273 272 272 272 273 272 273 273 274 275 276 277
310 310 308 303 305 306 283 290 301 290 284 282 280 280 280 279 278 277 276 276 276 275 275 274 273 273 273 272 272 273 273 272 271 271 271 270 271 271 272 273 273 274 276 277
309 305 301 302 301 282 281 281 282 282 281 279 278 277 277 276 276 275 275 275 274 274 273 272 272 272 272 271 271 271 270 270 269 269 269 269 270 270 271 271 272 272 273 274
293 292 295 291 283 281 278 277 278 278 277 277 276 275 275 275 276 276 275 274 273 272 271 270 271 271 270 269 269 269 269 268 268 268 268 268 269 269 269 270 271 271 272 273
291 293 289 285 280 279 278 277 276 276 275 275 275 274 274 275 274 274 273 272 271 270 269 269 269 269 268 268 267 267 267 267 267 267 267 267 268 268 269 269 270 271 272 273
282 290 294 295 282 282 279 277 276 276 275 274 274 273 272 273 272 271 270 269 269 268 268 267 267 266 266 266 266 266 266 265 265 265 265 266 266 267 268 269 269 270 271 273
Wind_Speed
11 6 19 19 15 6 6 5 8 2 3 3 8 12 19 9 5 8 12 8 10 12 19 27 30 29 25 24 24 28 33 37 36 37 36 35 42 40 38 38 36 35 34 32
8 23 5 8 7 7 4 4 5 4 3 3 5 11 14 10 9 9 10 10 10 9 10 20 28 26 24 26 28 29 31 34 37 37 36 32 26 33 41 39 38 37 36 35
10 3 14 9 8 13 13 16 4 3 3 3 5 16 10 10 5 7 8 9 7 11 14 10 17 22 24 28 30 29 32 33 35 38 32 27 25 24 22 31 37 40 38 38
11 12 7 5 18 15 16 7 7 5 3 5 3 10 7 4 5 5 8 8 9 12 7 7 13 21 24 28 24 25 29 30 31 32 31 32 29 26 32 29 35 36 34 35
9 9 16 11 9 12 6 8 12 6 4 3 7 4 5 1 4 6 7 9 9 6 6 8 9 13 15 15 15 17 21 25 27 29 34 34 30 33 26 24 28 28 29 29
6 1 11 14 7 16 7 5 4 3 9 10 16 8 17 11 6 5 6 7 4 3 4 1 6 11 19 16 5 7 12 17 20 23 26 28 28 24 16 19 22 25 28 30
16 6 3 5 8 5 8 8 3 6 7 13 10 8 21 3 4 6 8 8 4 3 5 6 8 14 22 28 24 10 3 3 9 14 21 24 27 25 23 24 24 25 26 28
12 10 15 5 8 8 22 14 5 7 5 8 4 10 17 4 12 12 9 4 5 6 4 6 7 15 21 27 30 33 32 25 15 4 6 13 17 21 23 24 25 27 27 31
12 12 5 7 4 14 15 17 8 3 1 2 5 7 10 7 7 5 3 6 7 7 5 7 9 19 23 30 33 32 35 35 33 29 27 23 17 12 8 12 17 20 23 28
7 1 5 7 5 9 9 7 8 7 8 9 4 4 9 2 6 5 6 8 8 6 7 7 10 19 25 29 30 33 34 34 33 31 30 27 24 22 20 18 17 15 14 16
7 4 0 12 15 22 8 9 6 4 7 5 3 7 7 11 6 8 8 9 8 7 7 7 11 20 22 27 29 29 31 32 32 30 29 28 27 25 24 24 24 23 22 21
7 5 4 12 4 12 19 16 19 6 10 4 1 5 4 7 8 10 9 8 6 8 7 7 14 17 21 24 26 26 28 29 30 28 27 27 27 27 27 27 26 26 27 27
13 5 4 2 1 0 11 13 14 5 2 11 6 8 1 3 9 5 8 7 8 9 10 9 14 16 18 19 21 22 25 26 29 28 28 28 29 29 29 29 29 30 30 30
19 6 16 15 8 7 12 18 18 20 12 17 11 8 3 3 7 8 8 9 8 9 9 8 9 14 15 17 19 20 22 26 29 28 27 26 27 27 28 30 32 33 34 34
12 15 10 12 3 5 8 18 20 17 24 14 19 13 17 9 10 7 7 8 9 8 9 9 8 10 14 17 18 18 20 24 25 25 24 24 24 24 26 28 31 33 34 35
9 4 8 1 3 6 4 13 18 22 23 19 4 13 5 6 8 6 7 8 8 7 7 7 8 13 13 16 17 17 20 21 23 22 23 23 23 26 27 28 29 29 28 28
9 9 9 19 5 3 2 21 15 17 16 20 17 17 6 5 9 7 7 7 7 6 6 7 8 12 14 17 18 20 23 23 21 21 20 20 24 26 27 27 27 28 30 30
19 16 4 2 8 10 8 4 20 19 13 19 6 6 7 10 10 10 7 6 7 6 6 7 11 13 15 16 16 19 18 17 17 16 20 23 26 27 27 27 27 29 29 30
15 11 3 4 11 3 3 4 7 10 13 5 12 8 9 14 8 4 5 5 6 5 7 8 10 13 15 16 19 18 17 18 18 22 25 27 28 30 31 31 31 31 32 32
14 14 9 3 4 10 4 3 2 6 12 3 6 12 15 11 7 4 4 5 5 7 7 8 11 11 12 15 18 17 18 19 22 26 27 29 30 32 33 33 35 35 35 36
7 5 11 5 3 6 3 2 4 7 4 5 3 5 5 3 3 9 6 6 7 7 8 10 10 10 13 15 17 17 17 21 23 25 28 30 32 33 33 34 34 36 37 37
11 8 4 3 3 7 2 1 10 5 8 9 7 6 10 10 8 7 6 6 8 9 9 10 10 10 11 14 16 17 18 22 24 26 29 31 32 32 33 34 35 33 33 35
4 4 5 5 3 4 5 7 5 5 9 5 8 7 7 9 6 6 5 6 9 9 9 10 10 10 11 15 16 18 20 23 27 29 31 31 32 32 32 33 34 32 29 30
2 3 4 4 3 4 6 10 10 10 12 11 10 8 7 8 6 7 7 7 9 9 8 9 10 12 15 19 19 19 21 25 26 28 29 30 30 32 32 31 30 29 28 29
1 6 7 4 5 7 4 8 10 12 12 13 11 9 8 8 7 6 6 7 6 6 8 10 12 13 15 19 19 23 22 23 25 26 28 28 27 29 32 31 31 31 30 30
4 6 5 4 12 4 7 11 11 12 11 10 12 10 10 10 7 5 5 5 4 6 9 10 12 14 19 23 25 26 26 24 27 26 26 27 29 30 30 33 36 29 31 32
Wind_Direction
189 187 211 193 205 212 181 187 204 231 260 208 235 247 263 260 224 255 261 243 249 261 272 277 277 278 270 266 260 252 244 244 236 227 226 228 231 236 241 244 247 248 247 248
184 225 157 169 189 202 181 191 215 295 241 210 289 266 264 249 236 221 243 250 245 252 269 270 274 272 266 268 271 259 246 242 236 228 227 224 233 237 241 246 247 247 248 248
198 207 165 169 179 206 224 225 142 187 355 299 347 289 240 259 226 221 239 235 245 239 254 262 274 280 289 287 277 265 250 241 237 231 225 226 232 237 234 238 247 247 247 249
233 236 192 190 204 187 223 178 165 183 98 241 131 278 230 229 249 208 241 240 237 247 268 278 288 296 295 295 287 267 253 243 240 232 219 220 220 227 237 238 247 250 251 251
210 160 199 214 201 181 220 152 195 164 177 29 245 286 288 240 282 266 259 252 248 271 273 281 294 303 317 306 278 259 249 242 239 232 226 224 222 236 243 249 251 253 256 254
199 218 176 208 161 182 134 78 81 116 223 243 234 201 265 234 199 218 247 253 294 277 302 7 27 30 36 29 340 263 247 246 242 233 234 230 235 242 253 255 256 259 263 264
209 217 238 157 146 132 166 134 184 214 210 239 152 178 246 264 277 240 241 244 147 126 92 51 28 21 37 44 50 68 71 275 246 236 235 239 243 248 252 258 260 263 263 263
189 213 209 196 192 186 201 197 164 195 209 233 183 214 236 213 241 269 215 203 143 125 84 75 42 44 39 53 60 63 68 70 70 65 264 260 261 262 264 270 268 267 267 273
186 227 241 174 160 170 192 213 199 109 58 89 213 280 303 239 250 259 279 121 150 138 106 86 63 61 61 62 62 61 61 62 63 66 67 65 60 46 7 304 289 285 287 287
197 211 185 172 124 233 172 140 195 219 210 230 257 256 231 308 260 196 152 150 151 136 105 76 62 70 68 65 59 57 55 52 53 53 51 51 50 48 45 40 28 13 352 333
162 140 341 139 204 197 167 207 213 182 197 207 198 249 218 227 189 173 163 145 150 131 99 74 66 63 59 57 53 49 45 41 41 39 39 38 35 33 33 30 21 14 4 355
174 135 155 199 327 211 212 213 204 203 208 211 119 265 303 227 192 157 155 147 138 92 86 74 69 60 50 44 43 41 37 33 29 25 24 23 21 19 17 15 11 6 0 353
181 199 131 41 37 205 206 218 211 191 76 202 201 232 91 144 126 123 131 108 69 71 67 56 49 47 44 37 32 32 27 21 17 14 12 10 8 6 2 359 357 354 351 347
176 190 208 214 229 133 199 208 208 208 224 229 222 242 241 185 156 149 132 94 88 78 68 59 49 37 33 28 23 21 14 8 5 4 2 358 356 353 349 346 345 342 340 337
193 215 208 228 160 195 208 209 207 210 222 216 229 218 236 185 172 153 110 109 93 72 61 51 44 30 23 15 11 6 3 358 356 354 351 346 345 344 342 339 336 333 332 329
191 229 183 196 144 178 187 207 205 210 222 225 248 234 174 140 99 107 110 112 97 78 63 44 33 20 14 3 354 350 350 349 347 348 341 342 341 337 335 334 331 328 322 319
189 182 179 222 148 82 272 221 198 213 215 208 216 222 157 111 122 128 117 108 102 82 50 29 19 5 358 352 348 345 345 344 346 345 345 343 335 334 334 332 330 325 322 319
187 191 183 191 150 220 249 216 203 206 212 215 220 165 163 143 104 90 58 96 89 64 37 22 360 350 348 347 345 337 339 342 342 346 344 341 338 335 334 331 328 324 321 317
192 178 134 161 199 303 285 196 151 174 228 212 215 115 113 119 100 80 80 75 80 55 39 12 353 346 342 344 342 343 349 352 356 352 345 341 339 335 334 332 329 326 321 316
192 194 189 152 170 206 222 171 10 89 251 156 138 152 152 154 173 154 129 89 68 55 32 12 357 349 349 350 349 352 353 357 355 347 341 337 338 335 332 330 327 324 321 316
185 193 201 171 199 281 229 130 265 144 235 119 86 85 115 138 39 116 108 88 68 47 28 18 5 356 356 354 354 357 356 356 345 340 338 337 336 333 328 323 321 318 315 311
170 174 170 113 142 261 3 170 181 107 97 113 94 92 101 107 105 98 88 74 56 39 28 16 4 354 356 359 359 357 356 345 341 338 337 334 331 326 321 317 312 311 308 305
167 158 172 182 202 41 56 69 49 100 128 128 118 115 112 115 101 96 87 72 58 39 22 4 353 348 357 1 1 352 345 343 340 336 333 331 326 322 317 312 308 307 305 300
25 50 114 131 151 124 94 83 72 90 106 104 102 104 96 112 109 94 81 56 41 23 7 354 353 353 353 354 354 350 343 341 337 332 329 326 321 316 313 308 304 301 301 298
102 138 128 81 119 110 102 111 119 112 110 111 108 112 103 101 79 75 71 55 34 3 357 360 357 351 345 344 343 344 341 339 334 328 323 320 317 313 309 304 301 300 294 292
195 154 186 189 162 115 139 147 137 125 121 125 126 117 96 102 101 86 75 53 12 350 356 355 349 342 337 339 338 341 344 340 331 323 319 316 313 310 306 306 306 303 300 299